Regional Weather Roundup
Issued by NWS Upton, NY

Current Version | Previous Version | Text Only | Print | Product List | Glossary On
Versions: 1 2 3 4 5 6 7 8 9 10 11 12 13 14 15 16 17 18 19 20 21 22 23 24 25 26 27
000
ASUS41 KOKX 290509
RWROKX

REGIONAL WEATHER ROUNDUP
NATIONAL WEATHER SERVICE NEW YORK NY
100 AM EDT MON MAY 29 2017

NOTE: "FAIR" INDICATES FEW OR NO CLOUDS BELOW 12,000 FEET WITH NO
SIGNIFICANT WEATHER AND/OR OBSTRUCTIONS TO VISIBILITY.

NYZ071-072-176-178-NJZ106-104-290600-
NEW YORK CITY METRO AREA

CITY           SKY/WX    TMP DP  RH WIND       PRES   REMARKS
Central Park   CLOUDY    61  51  70 VRB5      29.93F
Wall St Helipt CLOUDY    61  54  77 NE14      29.90F
Bronx Bot Gard   N/A     59  50  72 NE3       29.93F
LaGuardia APRT CLOUDY    62  51  67 E10       29.90F
Kennedy INTL   CLOUDY    60  55  83 E9        29.91F
Breezy Point     N/A     57 N/A N/A E12         N/A
Newark/Liberty LGT RAIN  61  53  75 E7        29.89F
Teterboro      CLOUDY    61  51  70 E7        29.89F
$$

NYZ177-179-078>081-290600-
LONG ISLAND NEW YORK

CITY           SKY/WX    TMP DP  RH WIND       PRES   REMARKS
Jones Beach      N/A     57 N/A N/A E10         N/A
Matinecock PT  NOT AVBL
Farmingdale    CLOUDY    59  52  77 E8        29.91F
MacArthur/ISP  CLOUDY    58  53  84 E8        29.92F
Shirley        CLOUDY    57  54  89 VRB3      29.93F
Mt Sinai Harb    N/A    N/A N/A N/A E5          N/A
Westhampton    CLOUDY    57  52  83 E6        29.95F
East Hampton     N/A     55  52  90 E9        29.94F
Montauk          N/A     56  53  90 VRB6      29.96F
$$

NYZ052-065-067-290600-
HUDSON VALLEY

CITY           SKY/WX    TMP DP  RH WIND       PRES   REMARKS
White Plains   CLOUDY    58  50  75 E7        29.91F
Larchmont Harb   N/A     57 N/A N/A NE17        N/A
Croton O-T Hud   N/A     59 N/A N/A CALM        N/A
Newburgh       CLOUDY    57  52  82 E9        29.93F
Montgomery     CLOUDY    57  53  86 CALM      29.91S
Poughkeepsie   CLOUDY    57  49  74 CALM      29.91F
Albany         MOCLDY    60  48  64 SE9       29.90S
$$

NJZ001-105-106-008-010-013-015-019>022-104-290600-
NEW JERSEY

CITY           SKY/WX    TMP DP  RH WIND       PRES   REMARKS
Newark/Liberty LGT RAIN  61  53  75 E7        29.89F
Teterboro      CLOUDY    61  51  70 E7        29.89F
Caldwell       CLOUDY    62  51  67 VRB6      29.90F
Somerville     LGT RAIN  58  56  93 NE3       29.87F
Linden         DRIZZLE   59  54  84 SE7       29.89F
Perth Amboy      N/A     57 N/A N/A E12         N/A
Sussex         CLOUDY    60  51  72 SE3       29.91F
Andover          N/A     57  52  83 CALM      29.90F
Trenton        LGT RAIN  58  56  93 E7        29.86F
Millville      LGT RAIN  59  59 100 E8        29.82F
Atlantic City  LGT RAIN  59 N/A N/A E10       29.83F
Wrightstown    LGT RAIN  57  55  94 E7        29.83F
Toms River     LGT RAIN  58  57  97 E9        29.86F
Belmar         LGT RAIN  58  56  93 E9        29.88F
$$

PAZ047>061-062-071-290600-
EASTERN PENNSYLVANIA

CITY           SKY/WX    TMP DP  RH WIND       PRES   REMARKS
Philadelphia   CLOUDY    60  57  89 NE8       29.85F
Allentown      LGT RAIN  59  54  83 E7        29.87F
Scranton       LGT RAIN  59  53  80 NE3       29.86S
$$

CTZ002-004>006-009-010-012-RIZ004-006-007-MAZ004-011-015-290600-
SOUTHERN NEW ENGLAND
 IN CT

CITY           SKY/WX    TMP DP  RH WIND       PRES   REMARKS
Bradley INTL   CLOUDY    55  49  80 SE3       29.96S
Hartford       CLOUDY    56  50  80 SE6       29.96S
Danbury        CLOUDY    54  51  90 E6        29.94F
Wtrbury/Oxford   N/A     54  46  76 SE5       29.96F
Bridgeport     CLOUDY    58  53  84 E13       29.94S
Meriden        CLOUDY    55  51  86 E3        29.95F
New Haven      CLOUDY    56  52  86 VRB6      29.95S
Chester        CLOUDY    54  52  94 CALM      29.96S
Groton         CLOUDY    55  51  86 E8        29.95F
Wilimantic     CLOUDY    55  50  83 E3        29.98S

 IN RI

CITY           SKY/WX    TMP DP  RH WIND       PRES   REMARKS
Providence     PTCLDY    52  51  97 SE6       29.99S
Block Island   NOT AVBL
Westerly       CLOUDY    55  52  89 E8        29.97F
 IN MA

CITY           SKY/WX    TMP DP  RH WIND       PRES   REMARKS
Boston         MOCLDY    54  49  83 S8        29.99S
Worcester      PTCLDY    52  45  77 S5        29.98S
Westfield      CLOUDY    53  49  86 S3        29.95F
Provincetown   MOCLDY    51  48  89 SE5       30.02S
Nantucket      MOCLDY    49  46  90 SE13      30.00S
$$

ANZ330-335-338-340-345-350-353-355-290600-
COASTAL MARINE OBSERVATIONS


STATION/POSITION TIME  SKY/WX   TEMP    WIND        PRES    VSBY  WAVE
                                AIR SEA DIR/SP/G                  HT/PER
                 (UTC)          (F)     (DEG/KT/KT) (MB)    (MI)  (FT/S)
NY HARB ENTRANCE 0450            58 58  100/ 16/ 17 1011.5          3/ 5
20 S FIRE ISLAND 0450            57 56  110/ 16/ 17 1011.3          4/ 5
GREAT SOUTH BAY  0430            59 65  110/ 14/ 16   N/A
23 SSW MONTAUK P 0350            56 55              1014.1          3/ 4
15 E BARNEGAT LI 0430               60                N/A           5/ 6
HUDSON CANYON    0350            58 55  120/ 17/ 21 1011.5          5/ 6
KINGS POINT      0442            60 60  110/  3/  6 1012.8
EXECUTION ROCKS  0445            60                   N/A
CENTRAL LI SOUND 0353            55      90/ 14/ 16   N/A           1/22
EASTERN LI SOUND NOT AVBL
ROBBINS REEF     0442            60     110/ 13/ 17 1013.0
$$


>>>>>>>>>>>>>>>>>>>>>>>>>>>> KEY <<<<<<<<<<<<<<<<<<<<<<<<<<<
>                                                          <
>     SKY/WX - Sky Condition/Present Weather               <
>     TMP    - Temperature in Fahrenheit                   <
>     DP     - Dew Point in Fahrenheit                     <
>     RH     - Relative Humidity in Percent                <
>     WIND   - Direction (from) and Speed in MPH           <
>     PRES   - Mean Sea Level Pressure (inches of Hg)      <
>     WCI    - Wind Chill Index                            <
>     VSB    - VISIBILITY IN MILES                         <
>     HX     - HEAT INDEX                                  <
>     TC     - TEMPERATURE IN CELSIUS                      <
>     VRB    - VARIABLE WIND DIRECTION                     <
>                                                          <
>>>>>>>>>>>>>>>>>>>>>>>>>>>> KEY <<<<<<<<<<<<<<<<<<<<<<<<<<<




USA.gov is the U.S. government's official web portal to all federal, state and local government web resources and services.